Location: Unspecified
(0.0000°N, 0.0000°E)
Time: 12:09:32
(UTC+00:00)

SR - All Passes

Search period start: 26 July 2016 00:00
Search period end: 05 August 2016 00:00
Orbit: 584 x 874 km, 66.7° (Epoch: 25 July)

Date Brightness Start Highest point End Pass type
(mag) Time Alt. Az. Time Alt. Az. Time Alt. Az.
26 Jul - 09:52:03 10° NE 09:54:50 16° ENE 09:57:43 10° ESE daylight
26 Jul - 11:32:46 10° WNW 11:36:34 25° WSW 11:40:38 10° SSW daylight
26 Jul - 22:16:52 10° S 22:22:15 48° ESE 22:27:12 10° NE night (unlit)
27 Jul - 00:03:00 10° W 00:03:56 10° WNW 00:04:52 10° WNW night (unlit)
27 Jul - 10:42:44 10° NNW 10:47:16 70° WSW 10:52:15 10° SSE daylight
27 Jul - 21:28:59 10° SSE 21:32:54 20° ESE 21:36:38 10° ENE night (unlit)
27 Jul - 23:10:11 10° SW 23:14:47 28° WNW 23:19:07 10° NNW night (unlit)
28 Jul - 09:53:48 10° N 09:58:06 41° ENE 10:02:44 10° SE daylight
28 Jul - 22:20:06 10° SSW 22:25:38 71° WNW 22:30:42 10° NNE night (unlit)
29 Jul - 09:06:20 10° NE 09:08:57 15° ENE 09:11:42 10° ESE daylight
29 Jul - 10:46:47 10° NW 10:50:41 27° WSW 10:54:53 10° SSW daylight
29 Jul - 21:31:04 10° S 21:36:23 45° ESE 21:41:16 10° NE night (unlit)
29 Jul - 23:16:37 10° W 23:18:04 11° WNW 23:19:31 10° NW night (unlit)
30 Jul - 09:56:48 10° NNW 10:01:23 74° WSW 10:06:25 10° SSE daylight
30 Jul - 20:43:17 10° SSE 20:47:01 18° ESE 20:50:34 10° ENE night (unlit)
30 Jul - 22:24:15 10° SW 22:28:56 29° WNW 22:33:17 10° NNW night (unlit)
31 Jul - 09:07:57 10° N 09:12:12 38° ENE 09:16:49 10° SE daylight
31 Jul - 10:53:13 10° WSW 10:54:11 11° WSW 10:55:11 10° SW daylight
31 Jul - 21:34:15 10° SSW 21:39:46 75° WNW 21:44:49 10° NNE night (unlit)
01 Aug - 08:20:37 10° NE 08:23:05 14° ENE 08:25:38 10° ESE daylight
01 Aug - 10:00:47 10° NW 10:04:48 28° WSW 10:09:08 10° S daylight
01 Aug - 20:45:17 10° S 20:50:30 42° ESE 20:55:19 10° NE night (unlit)
01 Aug - 22:30:22 10° W 22:32:12 12° WNW 22:34:00 10° NW night (unlit)
02 Aug - 09:10:53 10° NNW 09:15:30 79° WSW 09:20:34 10° SSE daylight
02 Aug - 19:57:37 10° SSE 20:01:08 17° ESE 20:04:31 10° ENE night (unlit)
02 Aug - 21:38:19 10° SW 21:43:04 30° WNW 21:47:28 10° N night (unlit)
03 Aug - 08:22:05 10° N 08:26:19 36° ENE 08:30:55 10° SE daylight
03 Aug - 10:06:43 10° W 10:08:17 11° WSW 10:09:54 10° SW daylight
03 Aug - 20:48:23 10° SSW 20:53:53 80° WNW 20:58:55 10° NNE night (unlit)
04 Aug - 07:34:55 10° NE 07:37:12 13° ENE 07:39:33 10° E daylight
04 Aug - 09:14:47 10° NW 09:18:54 30° WSW 09:23:21 10° S daylight
04 Aug - 19:59:29 10° S 20:04:37 40° ESE 20:09:22 10° NE night (unlit)
04 Aug - 21:44:12 10° W 21:46:19 12° WNW 21:48:24 10° NW night (unlit)
